Location: Home
(42.5358°N, 72.7383°W)
Time: 18:27:38
(UTC-05:00)

SR - Pass Details

Date: 14 December 2021
Orbit: 582 x 872 km, 66.7° (Epoch: 20 January)

Event Time Altitude Azimuth Distance (km) Brightness Sun altitude
Exits shadow 05:04:09 28° 1° (N) 1,162 ? -22.9°
Maximum altitude 05:06:00 44° 54° (NE) 871 ? -22.5°
Drops below altitude 10° 05:10:26 10° 127° (SE) 2,064 ? -21.7°
Sets 05:12:55 0° 134° (SE) 3,020 ? -21.3°
